SL-12 DEB, 36882

Orbit data source: Space-Track

SL-12 DEB, 36882 is space debris in LEO originally from a launch on Tue, 10 Jan 1989 UTC launched from the Tyuratam Missile And Space Complex (TTMTR). Debris objects in space refer to the collection of defunct objects orbiting the Earth. Examples of debris include non-operational satellites, rocket bodies, and fragments generated from explosions, collisions, or faulty payload assembly.

Loading next visibility...
Identifier
36882, 1989-001V
Orbit
LEO
Country
Flag of CISCIS
Related business
Manufacturer
Unknown
Mission
Spacecraft
Bus & Motor
Unknown
Mass
Unknown
Launch date (UTC)
1989-01-10 (37 years ago)
Launch vehicle
Unknown
Launch site
Tyuratam Missile And Space Complex (TTMTR)
Object type
Payload
Rocket body
Debris
Shape & HBR
Unknown shape, 0.1 m
Radar Cross Section
Small (<0.1 m²)

Expand to show TLE details & history
Last TLE update: 7 hours ago

TLE from 7 hours ago
0 SL-12 DEB
1 36882U 89001V   25350.87982498  .00041694  00000-0  13764+0 0  9999
2 36882  64.7883 259.1252 2000617  94.3754 288.6828 10.20342977537607
Epoch: 2025-12-16T21:06Z
TLE epoch observation values (Epoch: 2025-12-16T21:06:56.878Z)
Latitude
0.00005°
Longitude
-143.36946°
Altitude
2,374.043 km
Speed
6.835 km/s
True Right ascension
17h 16m 30s
True Declination
0° 00' 00"
Sunlit
Object was in daylight at epoch
Visualization orbit readout
Latitude
Unknown
Longitude
Unknown
Altitude
Unknown
Speed
Unknown
Apparent Right ascension
Unknown
Apparent Declination
Unknown
Sunlit
N/A
Visualization observer readout
Local Sidereal Time
02:43:34
Azimuth
Unknown
Elevation
Unknown
Doppler factor
Unknown
Orbital elements
Apogee altitude
4,396.04 km
Perigee altitude
803.724 km
Semi-major axis
8,978.019 km
Eccentricity
0.20006
Inclination
64.7883°
RAAN
259.1252°
Arg. of periapsis
94.3754°
True anomaly
265.71789°
Mean anomaly
288.6828°
Eccentric anomaly
277.31336°
Mean motion
2.55136 °/min
Orbital period
141.1 mins
BSTAR
0.13764
Loading maneuver chart data...
Computing Atmospheric mass density...
Loading historical data...
Loading historical data...
Loading historical data...
Loading historical data...
Loading historical data...
Loading historical data...
Loading historical data...

Documentation

Showing up to 5 results
|